{"data":{"norad_id":68418,"intl_designator":"2026-067C","name":"OPTISAT","alt_names":[],"object_type":"PAYLOAD","status":"ACTIVE","operator":null,"country":"GREC","launch_date":"2026-03-30","launch_site_code":"AFWTR","launch_vehicle":null,"mission":null,"orbit_class":"UNKNOWN","rcs_meters":null,"size_class":null,"mass_kg":null,"dimensions":null,"purposes":[],"wikipedia_slug":null,"has_3d_model":false,"image_url":null,"decayed_at":null,"tle_current":{"epoch":"2026-09-20T03:28:17.354784Z","epoch_age_seconds":99891,"freshness":"FRESH","line1":"1 68418U 26067C   26263.14464531  .00003254  00000+0  15567-3 0  9995","line2":"2 68418  97.4690 220.6108 0002046  14.6357 345.4936 15.19687369 26367","mean_motion":15.19687369,"eccentricity":0.0002046,"inclination_deg":97.469,"raan_deg":220.6108,"arg_perigee_deg":14.6357,"mean_anomaly_deg":345.4936,"bstar":0.00015567,"rev_number":2636,"period_min":94.756331425428,"perigee_km":505.37604373936,"apogee_km":508.19335369848,"semimajor_km":6884.9216987189,"source":"CELESTRAK","updated_at":"2026-09-20T09:00:24.198373Z"}}}